[[{"header":{"parameterUnit":"m.s-1","parameterCategory":1,"la1":30.2992,"la2":30.254,"lo1":-89.0895,"lo2":-89.0443,"dy":0.0025,"dx":0.0025,"nx":19,"ny":19,"refTime":"2026-05-17T03:00:00:Z","depth":0,"parameterNumber":2,"parameterNumberName":"U-component_of_WINDS"},"data":[0,0,0,-3.1395,-3.1394,-3.1328,-3.1328,-3.1266,-3.1266,0,0,0,0,0,0,0,0,0,0,0,-3.1427,-3.1427,-3.1395,-3.1393,-3.1329,-3.1328,-3.1266,-3.1266,0,0,0,0,0,0,0,0,0,0,0,-3.1427,-3.1427,-3.1427,-3.1393,-3.1329,-3.1328,-3.1266,-3.1307,0,0,0,0,0,0,0,0,0,0,-3.1367,-3.141,-3.1427,-3.1427,-3.1393,-3.1329,-3.1328,-3.1309,-3.1305,-3.1305,0,-3.1309,0,-3.1287,-3.1263,-3.1263,0,0,0,-3.1383,-3.1414,-3.1385,-3.1427,-3.1393,-3.1329,-3.1355,-3.1306,-3.1302,-3.1299,-3.1308,-3.1305,-3.1286,-3.1263,-3.1262,-3.1301,-3.1301,0,0,-3.1386,-3.1422,-3.1388,-3.1382,-3.1395,-3.1357,-3.1353,-3.1303,-3.1315,-3.1308,-3.1303,-3.1285,-3.1262,-3.1262,-3.13,-3.1301,0,0,0,-3.1404,-3.1426,-3.1397,-3.1385,-3.1372,-3.1355,-3.1351,-3.1317,-3.1304,-3.1302,-3.1284,-3.1262,-3.1262,-3.1299,-3.13,-3.1369,0,0,0,-3.1405,-3.1436,-3.1399,-3.142,-3.1374,-3.1344,-3.1366,-3.1308,-3.1301,-3.1284,-3.1262,-3.1261,-3.1298,-3.13,-3.1366,-3.1395,0,0,0,-3.1427,-3.1438,-3.1433,-3.1422,-3.1396,-3.1344,-3.1328,-3.1306,-3.129,-3.1263,-3.1261,-3.1298,-3.1299,-3.1362,-3.139,-3.1416,0,0,0,-3.146,-3.1494,-3.1435,-3.1467,-3.1397,-3.1388,-3.1328,-3.1319,-3.1304,-3.1262,-3.1298,-3.13,-3.1361,-3.1387,-3.1413,-3.1445,-3.1462,0,0,-3.1523,-3.1503,-3.1519,-3.1464,-3.1475,-3.1395,-3.1415,-3.1366,-3.1329,-3.1312,-3.1313,-3.1367,-3.1389,-3.1416,-3.1544,-3.1558,0,0,0,-3.1551,-3.1563,-3.1558,-3.1546,-3.1511,-3.1483,-3.1427,-3.1409,-3.1393,-3.1328,-3.1383,-3.1395,-3.1409,-3.1422,-3.1434,-3.1443,-3.1308,-3.1308,-3.1308,-3.1691,-3.1645,-3.1668,-3.1615,-3.1604,-3.1548,-3.1534,-3.15,-3.1455,-3.1469,-3.1463,-3.1547,-3.1564,-3.1572,-3.1583,-3.1476,-3.1477,-3.1477,-3.1477,-3.178,-3.1789,-3.1731,-3.1733,-3.1684,-3.1684,-3.1632,-3.16,-3.1593,-3.1547,-3.1556,-3.151,-3.1589,-3.1596,-3.1482,-3.1481,-3.148,-3.148,-3.1479,-3.1866,-3.1863,-3.1842,-3.1821,-3.1811,-3.1755,-3.1752,-3.1707,-3.1664,-3.1674,-3.1663,-3.1662,-3.1655,-3.1672,-3.1672,-3.1673,-3.1673,-3.1673,-3.1673,-3.1964,-3.1938,-3.1942,-3.1909,-3.1897,-3.1874,-3.182,-3.1806,-3.1778,-3.1746,-3.1745,-3.1699,-3.1606,-3.1583,-3.1678,-3.1677,-3.1676,-3.1676,-3.1676,-3.207,-3.2039,-3.2045,-3.2033,-3.1992,-3.1985,-3.1928,-3.1904,-3.1886,-3.1886,-3.1838,-3.1777,-3.1752,-3.1742,-3.1723,-3.1848,-3.1848,-3.1848,-3.1848,-3.2143,-3.2127,-3.2123,-3.2107,-3.2085,-3.2036,-3.2043,-3.2002,-3.1954,-3.194,-3.1916,-3.1887,-3.1879,-3.1859,-3.1847,-3.1828,-3.1977,-3.1977,-3.1977,-3.2206,-3.2186,-3.2201,-3.2156,-3.2121,-3.2092,-3.2098,-3.2081,-3.202,-3.1982,-3.1928,-3.1923,-3.1876,-3.1863,-3.1822,-3.1804,-3.1768,0,0]},{"header":{"parameterUnit":"m.s-1","parameterCategory":1,"la1":30.2992,"la2":30.254,"lo1":-89.0895,"lo2":-89.0443,"dy":0.0025,"dx":0.0025,"nx":19,"ny":19,"refTime":"2026-05-17T03:00:00:Z","depth":0,"parameterNumber":3,"parameterNumberName":"V-component_of_WINDS"},"data":[0,0,0,4.6881,4.6881,4.6901,4.6901,4.6919,4.6919,0,0,0,0,0,0,0,0,0,0,0,4.6872,4.6872,4.6881,4.6881,4.6901,4.6901,4.6919,4.6919,0,0,0,0,0,0,0,0,0,0,0,4.6872,4.6872,4.6872,4.6881,4.6901,4.6901,4.6919,4.6906,0,0,0,0,0,0,0,0,0,0,4.6888,4.6877,4.6872,4.6872,4.6881,4.6901,4.6901,4.6906,4.6907,4.6907,0,4.6907,0,4.6914,4.692,4.692,0,0,0,4.6883,4.6876,4.6884,4.6872,4.6881,4.6901,4.6892,4.6906,4.6908,4.6909,4.6908,4.6909,4.6914,4.692,4.692,4.6919,4.6919,0,0,4.6882,4.6873,4.6883,4.6885,4.6883,4.6892,4.6893,4.6907,4.6905,4.6908,4.6909,4.6914,4.692,4.692,4.6919,4.6919,0,0,0,4.6878,4.6872,4.688,4.6884,4.6888,4.6892,4.6894,4.6904,4.6908,4.6909,4.6914,4.692,4.692,4.6919,4.6919,4.6906,0,0,0,4.6877,4.6869,4.688,4.6874,4.6888,4.6897,4.689,4.6907,4.6909,4.6914,4.692,4.692,4.6919,4.6919,4.6907,4.6901,0,0,0,4.6871,4.6869,4.6871,4.6874,4.6882,4.6897,4.6901,4.6908,4.6912,4.692,4.692,4.6919,4.6919,4.6907,4.6902,4.6899,0,0,0,4.6862,4.6857,4.687,4.6867,4.6882,4.6889,4.6901,4.6907,4.6912,4.692,4.6919,4.6919,4.6907,4.6903,4.6899,4.6895,4.6892,0,0,4.6851,4.6856,4.6854,4.6867,4.687,4.6887,4.6888,4.69,4.6908,4.6915,4.6915,4.6907,4.6902,4.6899,4.688,4.6878,0,0,0,4.6848,4.6847,4.685,4.6855,4.6866,4.6875,4.6889,4.6894,4.69,4.691,4.6905,4.6903,4.6901,4.6899,4.6897,4.6897,4.6918,4.6918,4.6918,4.6817,4.683,4.683,4.6845,4.6851,4.6867,4.6872,4.6881,4.689,4.6889,4.6891,4.6878,4.6876,4.6874,4.6874,4.689,4.689,4.689,4.689,4.6802,4.6802,4.6819,4.6824,4.6837,4.6841,4.6857,4.6864,4.6869,4.6877,4.6877,4.6884,4.6871,4.6872,4.6889,4.6889,4.6889,4.6889,4.6889,4.6783,4.6786,4.6794,4.6805,4.6812,4.6828,4.6833,4.6845,4.6856,4.6856,4.6859,4.6859,4.6861,4.6857,4.6857,4.6857,4.6857,4.6856,4.6856,4.676,4.6769,4.6773,4.6787,4.6793,4.6803,4.682,4.6826,4.6836,4.6844,4.6844,4.6854,4.6868,4.6871,4.6856,4.6856,4.6856,4.6856,4.6856,4.6738,4.6746,4.6752,4.6759,4.6776,4.6783,4.6799,4.6812,4.6818,4.6821,4.6832,4.684,4.6845,4.6847,4.6849,4.6829,4.6829,4.6829,4.6829,4.6722,4.6727,4.6737,4.6747,4.6759,4.6775,4.6781,4.6795,4.681,4.6816,4.682,4.6825,4.6826,4.6831,4.6833,4.6835,4.6812,4.6812,4.6812,4.671,4.6717,4.672,4.6738,4.6753,4.6766,4.6772,4.6783,4.6802,4.6811,4.682,4.6821,4.6829,4.683,4.6839,4.6841,4.6846,0,0]}]]